Terug naar catalogus

COSMOS 2191

ActiefMilitairLEO
NORAD 21980·PAYLOAD·🇷🇺 Russia

Gelanceerd Jun 3, 1992 vanaf Plesetsk Cosmodrome

Loading…

Volgende Passages (komende 24 uur)

TLE

VersSource: Space-Track

Epoch: Sep 14, 2026, 14:49 UTC

1 21980U 92030E   26257.61760600  .00000003  00000-0  13350-3 0  9990
2 21980  74.0070 336.8290 0018673 347.5495  80.9211 12.44573955557297

Volg COSMOS 2191 in realtime met AllMySat

Download on the App Store